#timestamp,LO_Frequency,Hit,StdDev 
1570240815.9,286046994.7,N
1570240835.7,286046994.2,N
1570240855.6,286046992.3,N
1570240875.4,286046991.1,N
1570240895.2,286046987.4,Y
1570240915.1,286046992.1,P
1570240916.0,286046992.1,P
1570240935.8,286046990.8,P
1570240955.6,286046993.0,N
1570240975.5,286046990.8,Y
1570240995.3,286046998.4,P
1570241015.2,286046999.2,N
1570241035.9,286046999.0,N
1570241055.7,286046997.2,N
1570241075.6,286046998.6,N
1570241095.4,286046999.4,N
1570241115.2,286047002.3,N
1570241135.1,286047000.6,N
1570241136.0,286047000.6,N
1570241155.8,286046998.6,N
1570241175.7,286047001.0,N
1570241195.5,286047000.6,N
1570241215.3,286047000.3,N
1570241235.2,286047000.3,N
1570241255.0,286047001.2,N
1570241255.9,286047001.2,N
1570241275.7,286046999.1,N
1570241295.6,286046996.8,N
1570241315.4,286046998.7,N
1570241335.3,286046996.5,N
1570241355.1,286046996.6,N
1570241356.0,286046996.6,N
1570241375.8,286047000.5,N
1570241395.7,286046996.7,N
1570241415.5,286046997.5,N
1570241435.3,286046996.3,N
1570241455.2,286046994.2,N
1570241475.0,286046991.9,Y
1570241475.9,286046991.9,P
1570241495.8,286046994.0,N
1570241515.6,286046991.8,N
1570241535.4,286046992.1,N
1570241555.3,286046992.4,N
1570241575.1,286046996.3,N
1570241595.8,286046995.2,N
1570241615.7,286046998.0,N
1570241635.5,286046998.2,N
1570241655.4,286046998.2,N
1570241675.2,286047002.7,N
1570241695.0,286047002.7,N
1570241695.9,286047002.7,N
1570241715.8,286047001.8,N
1570241765.6,286047004.0,E
1570241775.6,286047001.6,N
1570241795.4,286047000.0,P
1570241815.2,286047001.3,N
1570241835.1,286047001.5,N
1570241836.0,286047001.5,N
1570241855.8,286047001.4,N
1570241875.7,286047001.7,Y
1570241895.5,286047003.8,P
1570241915.3,286047001.7,N
1570241935.2,286047002.2,N
1570241955.0,286047000.7,N
1570241955.9,286047000.7,N
1570241975.8,286046998.9,N
1570241995.6,286046996.9,N
1570242015.4,286046997.7,N
1570242035.3,286046996.2,N
1570242055.1,286046994.0,N
1570242056.0,286046994.0,N
1570242075.8,286046993.1,N
1570242095.7,286046992.3,N
1570242115.5,286046994.0,N
1570242135.4,286046994.3,N
1570242155.2,286046993.1,N
1570242175.0,286046991.9,N
1570242175.9,286046991.9,N
1570242195.8,286046992.2,N
1570242215.6,286046994.2,N
1570242235.4,286046995.0,N
1570242255.3,286046999.3,N
1570242275.1,286046999.0,N
1570242295.9,286046998.4,N
1570242315.7,286047000.6,N
1570242335.5,286047001.1,N
1570242355.4,286047001.8,N
1570242375.2,286047004.3,N
1570242395.0,286047002.1,N
1570242395.9,286047002.1,N
1570242415.8,286047003.5,N
1570242435.6,286047003.2,N
1570242455.5,286047005.6,N
1570242475.3,286047006.7,N
1570242495.1,286047003.3,N
1570242515.9,286047004.7,N
1570242535.7,286047005.5,N
1570242555.5,286047004.1,N
1570242575.4,286047001.7,N
1570242595.2,286047003.6,N
1570242615.0,286046999.9,N
1570242616.0,286046999.9,N
1570242635.8,286047001.9,N
1570242655.6,286047000.4,N
1570242675.5,286046999.9,N
1570242695.3,286046999.4,N
1570242715.1,286046998.1,N
1570242735.9,286047001.0,N
1570242755.7,286046998.8,N
1570242775.5,286047000.2,N
1570242795.4,286047000.7,N
1570242815.2,286046998.3,N
1570242835.1,286046998.2,N
1570242836.0,286046998.2,N
1570242855.8,286047000.5,N
1570242875.6,286047002.7,N
1570242895.5,286047001.9,N
1570242915.3,286047005.8,N
1570242935.1,286047003.1,N
1570242955.9,286047005.0,N
1570242975.7,286047008.9,Y
1570242995.6,286047010.2,P
1570243015.4,286047008.4,N
1570243035.2,286047008.5,N
1570243055.1,286047008.9,N
1570243056.0,286047008.9,Y
1570243075.8,286047001.0,P
1570243095.7,286046999.9,N
1570243115.5,286047000.6,N
1570243135.3,286046999.1,N
1570243155.2,286046999.6,N
1570243175.9,286046993.6,N
1570243195.7,286046995.5,N
1570243215.6,286046996.3,N
1570243235.4,286046992.5,N
1570243255.2,286046991.6,N
1570243275.1,286046991.0,N
1570243276.0,286046991.0,N
1570243295.8,286046991.4,N
1570243315.7,286046988.8,N
1570243335.5,286046988.9,N
1570243355.3,286046989.1,N
1570243375.2,286046990.6,N
1570243395.0,286046989.4,N
1570243395.9,286046989.4,N
1570243415.8,286046990.1,N
1570243435.6,286046990.8,N
1570243455.4,286046992.2,N
1570243475.3,286046992.7,N
1570243495.1,286046991.0,N
1570243515.8,286046993.1,N
1570243535.7,286046994.1,N
1570243555.5,286046990.8,N
1570243575.4,286046986.9,N
1570243595.2,286046989.3,N
1570243615.0,286046988.2,N
1570243615.9,286046988.2,Y
1570243635.8,286046994.2,P
1570243655.6,286046990.4,P
1570243675.4,286046992.9,P
1570243695.3,286046990.3,Y
1570243715.1,286046998.3,P
1570243735.3,286047004.2,N
1570243755.1,286047001.3,N
1570243775.8,286047001.3,N
1570243795.7,286046999.8,N
1570243815.5,286047000.0,N
1570243835.3,286047002.8,N
1570243855.2,286047000.3,N
1570243875.0,286047002.2,N
1570243875.9,286047002.2,N
1570243895.8,286047000.2,N
1570243915.6,286046998.2,N
1570243935.4,286046998.8,N
1570243955.3,286047004.3,N
1570243975.1,286047004.3,N
1570243995.8,286047002.4,N
1570244015.7,286047002.1,N
1570244035.5,286047005.8,N
1570244055.4,286047006.0,N
1570244075.2,286047002.4,N
1570244095.0,286047000.2,N
1570244095.9,286047000.2,N
1570244115.8,286047002.2,N
1570244135.6,286047000.6,N
1570244155.4,286047000.0,N
1570244175.3,286047002.7,N
1570244195.1,286047002.2,N
1570244215.9,286047002.1,N
1570244235.7,286047005.7,N
1570244255.5,286047003.9,N
1570244275.4,286047001.7,N
1570244295.2,286047001.5,N
1570244315.0,286047002.2,N
1570244315.9,286047002.2,N
1570244335.8,286047002.1,N
1570244355.6,286047004.4,N
1570244375.5,286047003.0,N
1570244395.3,286047003.1,N
